Flag for U.S.A. Weather past 2 weeks in Chula Vista, California, U.S.A.

Now
65 °F

Overcast.


Feels Like: 65 °F
Forecast: 60 / 69 °F
Wind: 9 mph from Northwest

Location: Brown Field Municipal Airport

Current Time: May 27, 2015 at 1:26:07 PM

Latest Report: May 27, 2015 at 12:53 PM


Visibility: 10 mi

Pressure: 29.99 "Hg

Humidity: 73%

Dew point: 56 °F

Location of Chula VistaLocation

Historic Weather in Chula Vista — Graph

°F

Chula Vista temperature yesterday

Maximum temperature yesterday: 64 °F (at 10:53 AM)
Minimum temperature yesterday: 59 °F (at 12:53 AM)
Average temperature yesterday: 61 °F

Past Weeks' High & Low Weather Summary

 TemperatureHumidityPressure
High68 °F (May 12, 11:53 AM)100% (May 27, 5:53 AM)30.11 "Hg (May 27, 5:53 AM)
Low52 °F (May 17, 3:53 AM)47% (May 14, 11:53 AM)29.80 "Hg (May 15, 2:53 PM)
Average60 °F75%29.98 "Hg
* Reported May 12 11:53 AM — May 27 11:53 AM, Chula Vista, Weather by CustomWeather, © 2015

Note: Actual official high and low records may vary slightly from our data, if they occured in-between our weather recording intervals... More about our weather records

Advertising

Chula Vista weather history for previous 24 hours

 ConditionsComfort  
Time TempWeatherWind HumidityBarometerVisibility
11:53 AM
Wed, May 27
64 °FOvercast.9 mph78%29.99 "Hg10 mi
10:53 AM63 °FOvercast.6 mph78%30.00 "Hg10 mi
9:53 AM62 °FFog.7 mph80%29.99 "Hg10 mi
8:53 AM61 °FFog.3 mph87%29.98 "Hg6 mi
7:53 AM59 °FFog.5 mph90%29.98 "Hg6 mi
6:53 AM58 °FLow clouds.No wind97%29.97 "Hg8 mi
6:04 AM57 °FLow clouds.5 mph96%29.98 "Hg10 mi
5:53 AM57 °FLow clouds.No wind100%29.97 "Hg10 mi
4:53 AM57 °FFog.No wind96%29.96 "Hg4 mi
3:53 AM58 °FLow clouds.5 mph90%29.96 "Hg7 mi
2:53 AM58 °FLow clouds.No wind90%29.96 "Hg10 mi
1:53 AM58 °FOvercast.7 mph90%29.97 "Hg10 mi
12:53 AM59 °FMostly cloudy.3 mph87%29.98 "Hg10 mi
11:53 PM
Tue, May 26
59 °FMostly cloudy.No wind90%29.99 "Hg10 mi
10:53 PM59 °FOvercast.3 mph90%29.99 "Hg8 mi
9:53 PM59 °FOvercast.5 mph90%30.00 "Hg7 mi
9:02 PM60 °FOvercast.5 mph83%30.00 "Hg10 mi
8:53 PM60 °FOvercast.6 mph83%29.99 "Hg10 mi
7:53 PM61 °FMostly cloudy.6 mph83%29.98 "Hg10 mi
6:53 PM61 °FOvercast.6 mph83%29.97 "Hg10 mi
5:53 PM63 °FOvercast.6 mph78%29.97 "Hg10 mi
4:53 PM64 °FMore clouds than sun.8 mph78%29.96 "Hg10 mi
3:53 PM64 °FOvercast.9 mph75%29.97 "Hg10 mi
2:53 PM63 °FOvercast.8 mph81%29.98 "Hg10 mi
1:53 PM63 °FOvercast.7 mph81%29.98 "Hg10 mi
Weather by CustomWeather, © 2015

See weather overviewHow to use our weather pages